AC4AG Weather Reports


time (UTC)temp
F
wind
direction
speed
knots
gust
knots
rain 1hr
in
rain 24hr
in
rain mn
in
humidity
%
barometer
mb
20260505130159 62 183 2.6 4.3 0.00 0.00 0.00 67 1012.3
20260505124648 61 169 5.2 6.1 0.00 0.00 0.00 67 1012.5
20260505124145 61 202 1.7 2.6 0.00 0.00 0.00 70 1012.5
20260505123641 60 154 4.3 6.1 0.00 0.00 0.00 69 1012.4
20260505123138 60 177 1.7 4.3 0.00 0.00 0.00 69 1012.4
20260505122634 60 173 2.6 4.3 0.00 0.00 0.00 70 1012.2
20260505122132 60 160 1.7 5.2 0.00 0.00 0.00 70 1012.0
20260505121628 59 145 1.7 1.7 0.00 0.00 0.00 71 1012.3
20260505121125 59 152 0.9 0.9 0.00 0.00 0.00 72 1012.1
20260505120621 59 129 0.9 2.6 0.00 0.00 0.00 71 1012.2
20260505120117 59 156 0.9 2.6 0.00 0.00 0.00 72 1012.0
20260505115612 59 153 0.9 1.7 0.00 0.00 0.00 73 1012.1
20260505115109 58 134 1.7 1.7 0.00 0.00 0.00 72 1012.2
20260505114606 58 143 0.0 0.0 0.00 0.00 0.00 74 1011.8
20260505114103 58 141 0.0 0.0 0.00 0.00 0.00 73 1012.0
20260505113559 58 129 0.0 0.0 0.00 0.00 0.00 72 1011.9
20260505113056 58 147 0.0 0.0 0.00 0.00 0.00 71 1012.0
20260505112552 58 145 0.0 0.0 0.00 0.00 0.00 71 1011.9
20260505112050 59 159 0.9 0.9 0.00 0.00 0.00 69 1011.9
20260505111544 59 178 1.7 4.3 0.00 0.00 0.00 68 1011.7
20260505111040 59 226 1.7 2.6 0.00 0.00 0.00 68 1011.7
20260505110537 59 189 3.5 5.2 0.00 0.00 0.00 68 1011.8
20260505102009 59 143 2.6 6.1 0.00 0.00 0.00 68 1011.1
20260505101508 59 158 3.5 7.8 0.00 0.00 0.00 68 1011.1
20260505101004 59 215 3.5 5.2 0.00 0.00 0.00 68 1011.1
20260505100501 59 109 2.6 7.8 0.00 0.00 0.00 68 1011.1
20260505095957 59 153 2.6 6.1 0.00 0.00 0.00 68 1011.0
20260505095454 60 201 2.6 2.6 0.00 0.00 0.00 67 1011.1
20260505094950 60 171 1.7 5.2 0.00 0.00 0.00 67 1011.1
20260505094447 60 200 3.5 5.2 0.00 0.00 0.00 67 1011.0
20260505093943 60 161 2.6 5.2 0.00 0.00 0.00 67 1010.9
20260505093439 59 194 2.6 5.2 0.00 0.00 0.00 67 1011.0
20260505092937 60 140 1.7 4.3 0.00 0.00 0.00 67 1011.0
20260505092435 60 159 2.6 4.3 0.00 0.00 0.00 66 1010.9
20260505091932 60 197 4.3 6.1 0.00 0.00 0.00 66 1011.0
20260505091430 60 182 2.6 2.6 0.00 0.00 0.00 66 1011.0
20260505090927 60 161 1.7 5.2 0.00 0.00 0.00 66 1011.1
20260505090426 60 134 4.3 5.2 0.00 0.00 0.00 66 1011.3
20260505085922 60 168 2.6 4.3 0.00 0.00 0.00 66 1011.4
20260505085420 60 166 0.9 2.6 0.00 0.00 0.00 66 1011.5
20260505084918 60 156 1.7 5.2 0.00 0.00 0.00 66 1011.3
20260505084416 60 184 2.6 4.3 0.00 0.00 0.00 66 1011.3
20260505083914 60 169 1.7 4.3 0.00 0.00 0.00 66 1011.2
20260505083411 60 174 0.9 1.7 0.00 0.00 0.00 66 1011.2
20260505082907 60 166 1.7 2.6 0.00 0.00 0.00 66 1011.4
20260505082403 60 194 0.9 1.7 0.00 0.00 0.00 66 1011.2
20260505081900 60 173 0.9 2.6 0.00 0.00 0.00 65 1011.3
20260505081357 60 194 0.9 5.2 0.00 0.00 0.00 65 1011.0
20260505080854 60 194 1.7 2.6 0.00 0.00 0.00 66 1010.9
20260505080349 60 143 2.6 5.2 0.00 0.00 0.00 65 1010.9
20260505075845 60 203 4.3 7.0 0.00 0.00 0.00 65 1010.6
20260505075342 60 206 1.7 5.2 0.00 0.00 0.00 65 1010.6
20260505074839 60 169 2.6 2.6 0.00 0.00 0.00 65 1010.8
20260505074336 60 173 2.6 2.6 0.00 0.00 0.00 65 1010.8
20260505073834 60 164 1.7 4.3 0.00 0.00 0.00 65 1011.0
20260505073332 60 161 0.9 1.7 0.00 0.00 0.00 66 1010.9
20260505072828 60 151 1.7 2.6 0.00 0.00 0.00 66 1010.5
20260505072325 60 187 0.9 4.3 0.00 0.00 0.00 66 1010.7
20260505071820 60 167 1.7 2.6 0.00 0.00 0.00 66 1010.7
20260505071317 60 175 2.6 4.3 0.00 0.00 0.00 66 1010.7
20260505070815 60 173 2.6 2.6 0.00 0.00 0.00 65 1010.9
20260505070312 61 178 1.7 1.7 0.00 0.00 0.00 65 1010.8
20260505065807 61 173 1.7 4.3 0.00 0.00 0.00 64 1010.7
20260505065304 61 141 1.7 5.2 0.00 0.00 0.00 65 1010.8
20260505064801 60 199 2.6 5.2 0.00 0.00 0.00 65 1010.8
20260505064258 60 175 0.9 2.6 0.00 0.00 0.00 65 1010.5
20260505063756 61 162 2.6 2.6 0.00 0.00 0.00 64 1011.0
20260505063252 61 139 0.9 1.7 0.00 0.00 0.00 65 1010.7
20260505062749 61 187 2.6 4.3 0.00 0.00 0.00 64 1010.8
20260505062246 61 183 1.7 2.6 0.00 0.00 0.00 64 1010.7
20260505061743 61 146 3.5 5.2 0.00 0.00 0.00 64 1010.9
20260505061241 61 164 1.7 4.3 0.00 0.00 0.00 64 1011.1
20260505060738 62 183 0.9 4.3 0.00 0.00 0.00 63 1011.0
20260505060235 62 171 2.6 2.6 0.00 0.00 0.00 63 1011.0
20260505055730 62 166 3.5 7.0 0.00 0.00 0.00 63 1011.2
20260505055227 62 165 2.6 2.6 0.00 0.00 0.00 63 1011.1
20260505054724 62 161 1.7 2.6 0.00 0.00 0.00 63 1011.0
20260505054222 62 193 1.7 4.3 0.00 0.00 0.00 62 1011.1
20260505053720 63 151 0.9 1.7 0.00 0.00 0.00 62 1010.9
20260505053216 63 192 2.6 4.3 0.00 0.00 0.00 62 1011.0
20260505052714 63 169 2.6 4.3 0.00 0.00 0.00 61 1011.1
20260505052210 64 211 3.5 5.2 0.00 0.00 0.00 61 1010.9
20260505051707 64 179 2.6 7.0 0.00 0.00 0.00 61 1010.8
20260505051206 64 160 1.7 5.2 0.00 0.00 0.00 61 1010.6
20260505050703 64 213 4.3 7.0 0.00 0.00 0.00 60 1010.7
20260505050201 65 206 6.1 7.0 0.00 0.00 0.00 59 1010.7
20260505041637 65 195 6.1 11.3 0.00 0.00 0.00 60 1010.1
20260505041134 65 194 4.3 7.8 0.00 0.00 0.00 60 1010.0
20260505040631 65 178 3.5 6.1 0.00 0.00 0.00 59 1010.1
20260505040128 65 172 3.5 9.6 0.00 0.00 0.00 59 1010.0
20260505035624 65 171 5.2 7.8 0.00 0.00 0.00 59 1010.3
20260505035120 65 259 4.3 7.8 0.00 0.00 0.00 59 1009.9
20260505034617 66 177 6.1 7.8 0.00 0.00 0.00 59 1009.9
20260505034114 66 220 6.1 7.8 0.00 0.00 0.00 58 1010.0
20260505033611 65 211 4.3 13.9 0.00 0.00 0.00 58 1010.0
20260505033110 66 185 5.2 7.0 0.00 0.00 0.00 58 1010.3
20260505032607 66 167 4.3 6.1 0.00 0.00 0.00 59 1010.0
20260505032103 66 181 4.3 9.6 0.00 0.00 0.00 58 1009.9
20260505031601 66 144 3.5 7.8 0.00 0.00 0.00 58 1009.7
20260505031057 66 187 2.6 4.3 0.00 0.00 0.00 58 1009.9
20260505030554 66 211 2.6 8.7 0.00 0.00 0.00 57 1009.7
20260505030050 66 142 2.6 7.0 0.00 0.00 0.00 57 1009.7
20260505025545 66 183 5.2 8.7 0.00 0.00 0.00 57 1009.6
20260505025045 67 171 1.7 5.2 0.00 0.00 0.00 57 1009.7
20260505024541 67 178 4.3 7.0 0.00 0.00 0.00 56 1009.5
20260505024038 67 144 2.6 6.1 0.00 0.00 0.00 56 1009.3
20260505023535 67 190 2.6 6.1 0.00 0.00 0.00 56 1009.6
20260505023033 67 169 3.5 7.0 0.00 0.00 0.00 56 1009.5
20260505022530 68 195 3.5 7.8 0.00 0.00 0.00 55 1009.5
20260505022027 68 184 2.6 7.0 0.00 0.00 0.00 54 1009.5
20260505021524 68 217 3.5 7.0 0.00 0.00 0.00 54 1009.5
20260505021021 68 130 2.6 7.8 0.00 0.00 0.00 54 1009.6
20260505020520 68 199 4.3 7.8 0.00 0.00 0.00 54 1009.5
20260505020018 68 220 3.5 7.8 0.00 0.00 0.00 55 1009.5
20260505015515 68 190 5.2 8.7 0.00 0.00 0.00 55 1009.7
20260505015012 69 194 2.6 7.0 0.00 0.00 0.00 55 1009.4
20260505014509 69 214 7.8 9.6 0.00 0.00 0.00 54 1009.6
20260505014006 69 203 4.3 8.7 0.00 0.00 0.00 54 1009.4
20260505013503 69 203 4.3 7.8 0.00 0.00 0.00 54 1009.3
20260505013000 68 195 6.1 9.6 0.00 0.00 0.00 54 1009.4
20260505012458 68 212 6.1 7.8 0.00 0.00 0.00 54 1009.3
20260505011955 69 172 2.6 7.0 0.00 0.00 0.00 54 1009.4
20260505011450 69 176 2.6 7.0 0.00 0.00 0.00 55 1009.4
20260505010948 69 188 2.6 5.2 0.00 0.00 0.00 54 1009.6
20260505010443 69 155 4.3 6.1 0.00 0.00 0.00 54 1009.5
20260505005939 69 209 2.6 6.1 0.00 0.00 0.00 54 1009.5
20260505005436 69 205 3.5 7.0 0.00 0.00 0.00 54 1009.2
20260505004934 69 211 2.6 4.3 0.00 0.00 0.00 54 1009.2
20260505004431 69 195 3.5 7.0 0.00 0.00 0.00 53 1009.3
20260505003927 70 175 3.5 7.0 0.00 0.00 0.00 53 1009.2
20260505003425 70 189 2.6 6.1 0.00 0.00 0.00 53 1009.1
20260505002921 70 182 3.5 6.1 0.00 0.00 0.00 53 1009.2
20260505002417 70 178 3.5 6.1 0.00 0.00 0.00 53 1009.2
20260505001916 71 205 3.5 6.1 0.00 0.00 0.00 53 1009.1
20260505001413 71 151 4.3 7.8 0.00 0.00 0.00 52 1009.1
20260505000910 71 200 5.2 7.0 0.00 0.00 0.00 52 1009.1
20260505000408 71 211 2.6 7.8 0.00 0.00 0.00 52 1009.3
20260504235904 71 188 6.1 8.7 0.00 0.00 0.00 51 1009.0
20260504235401 72 213 4.3 7.0 0.00 0.00 0.00 52 1009.2
20260504234857 72 223 7.8 11.3 0.00 0.00 0.00 51 1009.1
20260504234355 72 189 4.3 7.0 0.00 0.00 0.00 52 1009.1
20260504233852 72 186 3.5 4.3 0.00 0.00 0.00 52 1009.2
20260504233347 72 202 3.5 6.1 0.00 0.00 0.00 52 1009.2
20260504232844 72 202 4.3 7.8 0.00 0.00 0.00 51 1009.4
20260504232342 73 217 7.8 12.2 0.00 0.00 0.00 50 1009.3
20260504231838 73 216 6.1 7.8 0.00 0.00 0.00 50 1009.4
20260504231335 73 175 6.1 12.2 0.00 0.00 0.00 49 1009.1
20260504230831 73 213 6.1 9.6 0.00 0.00 0.00 50 1009.4
20260504230329 73 209 4.3 12.2 0.00 0.00 0.00 50 1009.2
20260504225827 74 193 5.2 11.3 0.00 0.00 0.00 49 1009.2
20260504225323 74 238 7.0 12.2 0.00 0.00 0.00 48 1009.3
20260504224821 74 205 9.6 12.2 0.00 0.00 0.00 49 1009.3
20260504224318 74 210 5.2 7.8 0.00 0.00 0.00 49 1009.2
20260504223815 75 244 6.1 11.3 0.00 0.00 0.00 48 1009.1
20260504223310 75 209 6.1 14.8 0.00 0.00 0.00 47 1009.1
20260504222807 75 179 10.4 15.6 0.00 0.00 0.00 47 1009.1
20260504222305 75 216 5.2 8.7 0.00 0.00 0.00 48 1009.1
20260504221802 74 163 6.1 13.0 0.00 0.00 0.00 48 1009.3
20260504221258 74 222 7.0 11.3 0.00 0.00 0.00 48 1009.3
20260504220755 74 244 7.0 12.2 0.00 0.00 0.00 49 1009.4
20260504220252 74 213 7.0 9.6 0.00 0.00 0.00 49 1009.2
20260504215749 74 200 10.4 12.2 0.00 0.00 0.00 48 1009.3
20260504215246 74 209 8.7 13.0 0.00 0.00 0.00 48 1009.4
20260504214742 74 203 7.8 9.6 0.00 0.00 0.00 49 1009.6
20260504214238 74 257 5.2 7.8 0.00 0.00 0.00 50 1009.3
20260504213735 74 217 6.1 8.7 0.00 0.00 0.00 49 1009.3
20260504213231 74 215 4.3 9.6 0.00 0.00 0.00 50 1009.3
20260504212729 74 268 7.0 13.9 0.00 0.00 0.00 49 1009.2
20260504212225 74 226 7.0 8.7 0.00 0.00 0.00 50 1009.4
20260504211723 75 158 3.5 11.3 0.00 0.00 0.00 49 1009.4
20260504211219 75 218 7.8 9.6 0.00 0.00 0.00 48 1009.4
20260504210717 75 183 9.6 12.2 0.00 0.00 0.00 48 1009.3
20260504210213 75 199 9.6 11.3 0.00 0.00 0.00 50 1009.6
20260504205710 75 260 4.3 9.6 0.00 0.00 0.00 49 1009.5
20260504205208 75 210 6.1 9.6 0.00 0.00 0.00 49 1009.4
20260504204706 75 225 7.0 14.8 0.00 0.00 0.00 47 1009.7
20260504204204 75 264 7.8 13.9 0.00 0.00 0.00 47 1009.7
20260504203703 76 209 7.0 13.9 0.00 0.00 0.00 47 1009.4
20260504203201 76 230 12.2 13.9 0.00 0.00 0.00 47 1009.7
20260504202700 76 219 5.2 9.6 0.00 0.00 0.00 49 1009.8
20260504202158 76 177 6.1 9.6 0.00 0.00 0.00 49 1009.8
20260504201654 75 224 9.6 13.9 0.00 0.00 0.00 49 1009.8
20260504201152 76 205 5.2 13.0 0.00 0.00 0.00 49 1009.8
20260504200649 75 216 7.8 13.9 0.00 0.00 0.00 49 1010.1
20260504200146 76 223 9.6 13.0 0.00 0.00 0.00 48 1010.0
20260504195641 75 250 5.2 13.9 0.00 0.00 0.00 50 1010.3
20260504195138 76 231 4.3 9.6 0.00 0.00 0.00 50 1010.6
20260504194635 75 221 5.2 12.2 0.00 0.00 0.00 50 1010.5
20260504194131 75 237 6.1 13.0 0.00 0.00 0.00 50 1010.7
20260504193627 75 213 6.1 13.9 0.00 0.00 0.00 50 1010.6
20260504193126 75 212 5.2 8.7 0.00 0.00 0.00 52 1010.7
20260504192623 75 224 6.1 8.7 0.00 0.00 0.00 51 1010.9
20260504192121 75 214 11.3 13.9 0.00 0.00 0.00 50 1010.7
20260504191619 75 213 5.2 8.7 0.00 0.00 0.00 53 1011.0
20260504191115 75 221 6.1 9.6 0.00 0.00 0.00 52 1011.0
20260504190611 74 206 3.5 11.3 0.00 0.00 0.00 53 1011.2
20260504190108 74 232 5.2 8.7 0.00 0.00 0.00 54 1011.1
20260504185605 74 229 7.0 12.2 0.00 0.00 0.00 53 1011.0
20260504185101 74 214 7.0 11.3 0.00 0.00 0.00 53 1011.1
20260504184557 74 181 7.8 13.0 0.00 0.00 0.00 53 1011.3
20260504184052 74 230 9.6 12.2 0.00 0.00 0.00 53 1011.3
20260504183549 74 232 5.2 8.7 0.00 0.00 0.00 52 1011.4
20260504183048 73 232 6.1 13.9 0.00 0.00 0.00 52 1011.3
20260504182544 74 210 10.4 12.2 0.00 0.00 0.00 54 1011.5
20260504182042 74 221 8.7 11.3 0.00 0.00 0.00 53 1011.5
20260504181538 73 201 4.3 9.6 0.00 0.00 0.00 56 1011.4
20260504181037 73 274 4.3 8.7 0.00 0.00 0.00 55 1011.5
20260504180535 73 231 7.8 11.3 0.00 0.00 0.00 54 1011.6
20260504180034 72 192 3.5 7.0 0.00 0.00 0.00 56 1011.8
20260504175531 72 204 7.8 12.2 0.00 0.00 0.00 54 1011.8
20260504175028 71 166 5.2 11.3 0.00 0.00 0.00 58 1011.9
20260504174526 71 213 7.8 11.3 0.00 0.00 0.00 56 1011.8
20260504174022 72 260 9.6 12.2 0.00 0.00 0.00 56 1012.0
20260504173519 71 164 2.6 7.8 0.00 0.00 0.00 58 1012.0
20260504173017 71 213 4.3 9.6 0.00 0.00 0.00 59 1012.2
20260504172512 71 225 5.2 9.6 0.00 0.00 0.00 56 1011.9
20260504172009 71 218 6.1 8.7 0.00 0.00 0.00 56 1012.3
20260504171506 70 160 5.2 9.6 0.00 0.00 0.00 57 1012.4
20260504171003 69 177 5.2 7.8 0.00 0.00 0.00 58 1012.5
20260504170459 70 220 8.7 12.2 0.00 0.00 0.00 57 1012.5
20260504160419 67 178 5.2 8.7 0.00 0.00 0.00 61 1013.4
20260504150843 62 176 2.6 7.0 0.00 0.00 0.00 63 1014.5
20260504150339 62 195 3.5 7.8 0.00 0.00 0.00 62 1014.2
20260504141309 59 191 2.6 4.3 0.00 0.00 0.00 67 1015.0
20260504140806 59 192 1.7 4.3 0.00 0.00 0.00 64 1015.1
20260504140302 59 166 1.7 2.6 0.00 0.00 0.00 66 1015.1